RH
48 48 50 53 54 55 56 54 55 56 65 69 81 80 81 80 76 73 62 49 38 32 28 27 28 25 29 29 27 28 27 31 29 25 24 22 22 22 22 24 25 25 24
49 48 45 50 51 52 55 54 56 58 62 63 65 71 79 82 82 79 73 61 47 39 34 31 29 27 27 28 29 27 25 24 26 26 26 31 28 30 27 30 29 30 30
52 48 45 46 51 51 60 60 53 53 51 56 60 63 66 70 76 80 74 71 55 44 40 39 35 29 28 27 30 31 28 29 30 34 36 36 36 34 38 35 33 33 33
51 50 52 55 59 50 56 60 56 55 52 52 55 57 61 68 74 72 72 70 54 49 45 45 41 32 31 30 29 29 32 36 37 40 40 40 37 33 31 28 27 25 25
53 54 59 58 55 49 52 59 60 55 52 50 53 55 58 65 69 69 73 75 66 58 57 50 41 35 34 36 37 36 37 41 39 36 34 32 28 26 22 22 22 21 22
54 49 54 54 53 54 49 61 60 56 50 51 50 54 58 61 66 72 75 67 61 52 43 39 35 35 37 37 38 35 34 35 31 34 31 28 23 23 22 19 24 22 23
51 41 32 46 53 53 56 57 59 58 53 53 52 54 55 58 61 64 61 53 42 36 32 34 39 37 38 37 36 36 32 31 27 23 24 23 24 20 17 21 22 21 24
58 61 49 48 52 56 61 61 56 59 55 56 54 59 57 57 57 57 49 41 39 35 34 37 41 40 40 38 39 35 31 30 27 27 22 23 24 21 18 21 22 24 24
53 56 56 61 59 56 65 76 73 66 64 65 58 60 60 59 62 59 46 40 43 42 44 45 46 46 45 42 39 34 35 32 24 22 22 23 22 21 21 21 25 24 23
50 51 57 62 66 71 74 77 79 82 77 75 68 66 64 61 64 60 48 48 49 50 51 51 50 55 50 46 40 34 34 33 28 29 29 27 24 25 25 25 26 26 26
60 66 68 70 74 73 71 71 73 89 89 86 80 72 70 66 66 62 53 54 57 57 60 57 56 53 47 38 28 23 26 24 27 31 35 34 33 33 32 30 28 26 28
55 57 60 71 74 75 72 75 73 64 64 92 92 84 75 70 71 64 57 54 59 60 67 64 62 54 43 27 19 21 23 25 31 37 37 36 34 32 34 32 31 31 30
51 57 61 62 71 68 69 71 66 60 64 73 87 95 80 74 75 67 59 56 56 64 71 65 59 49 36 22 21 22 23 28 35 37 37 37 35 35 34 36 36 35 34
47 53 60 65 69 69 75 78 73 67 64 62 75 91 83 78 80 71 64 57 57 64 66 60 55 46 33 23 21 23 28 35 36 36 37 37 38 39 39 40 38 36 31
40 43 46 54 67 73 74 75 80 77 73 70 74 78 80 77 78 73 69 55 60 72 66 61 51 43 29 25 30 33 34 35 37 39 42 42 41 43 46 44 39 32 31
47 46 48 55 63 66 66 69 77 79 77 77 75 78 78 80 75 79 66 53 62 65 62 58 51 36 27 29 34 36 39 41 39 45 46 46 47 47 45 42 36 32 35
47 51 59 65 70 74 75 76 77 79 79 83 85 88 85 75 78 78 60 53 60 59 58 55 44 31 28 30 33 36 41 46 43 45 48 52 50 49 48 43 36 34 34
51 58 66 72 75 86 87 82 82 81 85 91 94 92 86 80 78 73 59 59 57 55 56 48 36 30 32 29 33 38 40 43 47 48 54 55 52 48 43 43 40 36 31
59 68 82 92 94 96 97 97 95 93 92 89 91 88 86 81 79 67 57 54 54 52 48 36 30 31 34 34 37 37 37 41 46 53 57 58 54 46 45 46 40 34 30
71 83 90 96 97 99 99 98 99 98 94 93 91 89 81 79 74 59 53 51 50 50 42 31 31 33 34 36 37 36 38 43 51 57 58 56 53 47 47 47 40 34 29
83 86 87 90 90 91 96 98 97 93 91 89 83 80 81 78 69 49 47 48 50 44 35 32 32 32 34 37 38 40 44 51 55 58 55 55 54 50 49 48 37 32 29
89 86 86 92 90 88 91 92 90 89 87 83 79 75 78 67 52 48 49 50 43 33 31 31 31 35 38 42 42 45 49 55 58 55 52 53 52 50 49 45 35 30 31
87 91 93 91 93 94 92 85 88 85 78 77 73 71 62 51 49 50 50 44 33 28 29 31 33 36 41 43 43 45 47 56 57 52 51 50 50 50 48 42 33 30 33
78 87 91 92 91 89 80 80 80 75 75 69 62 55 49 48 48 49 45 37 30 29 31 34 36 40 45 45 48 46 49 52 52 52 48 47 50 48 48 39 32 31 33
85 90 89 88 91 88 79 76 73 69 66 59 57 53 50 49 50 46 40 34 31 31 35 39 39 42 42 41 41 46 47 50 52 53 46 47 49 47 45 33 29 33 32
80 91 90 89 87 82 79 72 65 62 60 56 53 51 50 49 47 41 35 32 32 37 40 42 42 43 42 42 43 46 49 53 52 46 45 47 47 47 43 31 28 32 32